Powrót do katalogu

OPS 4682 DEB

AktywnyPO
NORAD 51499·DEBRIS·🇺🇸 United States

Wystrzelony Apr 3, 1965 z Vandenberg Space Force Base

Loading…

Następne Przeloty (najbliższe 24 godziny)

TLE

ŚwieżeSource: Space-Track

Epoka: Sep 12, 2026, 02:00 UTC

1 51499U 65027GK  26255.08365609  .00000143  00000-0  49455-3 0  9993
2 51499  90.2588  10.0636 0027150  44.8057 315.5248 12.93337351535223

Śledź OPS 4682 DEB w czasie rzeczywistym z AllMySat

Download on the App Store